Location: San Gennaro Vesuviano
(40.8833°N, 14.5333°E)
Time: 21:12:52
(UTC+00:00)

Okean 3 Rocket - Pass Details

Date: 22 April 2021
Orbit: 615 x 644 km, 82.5° (Epoch: 10 May)

Event Time Altitude Azimuth Distance (km) Brightness Sun altitude
Rises 20:39:22 0° 346° (NNW) 2,955 8.0 -27.5°
Reaches altitude 10° 20:41:41 10° 341° (NNW) 2,037 7.1 -27.8°
Enters shadow 20:45:39 46° 284° (WNW) 853 4.5 -28.2°
